Weather History for LGKZ - September, 2012

Change the Weather History Date:

Sunday, September 2, 2012

  Actual Average Record
Temperature  
Mean Temperature 70 °F -  
Max Temperature 84 °F - - ()
Min Temperature 57 °F - - ()
Cooling Degree Days 6    
Growing Degree Days 20 (Base 50)    
Moisture  
Dew Point 46 °F    
Average Humidity 47    
Maximum Humidity 67    
Minimum Humidity 26    
Precipitation  
Precipitation 0.00 in - - ()
Sea Level Pressure  
Sea Level Pressure 30.18 in    
Wind  
Wind Speed 4 mph ()    
Max Wind Speed 7 mph    
Max Gust Speed -    
Visibility 6.2 miles    
Events      
T = Trace of Precipitation, MM = Missing Value Source: Averaged Metar Reports

Daily Weather History Graph

Daily Weather History Graph

Search for Another Location

Airport or City:

Trip Planner

Search our weather history database for the weather conditions in past years. The results will help you decide how hot, cold, wet, or windy it might be!

Date:

Astronomy

Sep. 02, 2012 Rise Set
Actual Time 7:01 AM EEST 8:02 PM EEST
Civil Twilight 6:33 AM EEST 8:30 PM EEST
Nautical Twilight 6:00 AM EEST 9:03 PM EEST
Astronomical Twilight 5:25 AM EEST 9:37 PM EEST
Moon 8:39 PM EEST (9/2) 8:51 AM EEST (9/2)
Length of Visible Light 13h 56m
Length of Day
13h 01m
Waning Gibbous, 97% of the Moon is Illuminated
Sep 2
Waning Gibbous
Sep 8
Last Quarter
Sep 16
New
Sep 22
First Quarter
Sep 30
Full

Hourly Weather History & Observations

Time (EEST) Temp. Dew Point Humidity Pressure Visibility Wind Dir Wind Speed Gust Speed Precip Events Conditions
12:20 AM 64.4 °F 46.4 °F 52% 30.15 in - North 4.6 mph - N/A   Unknown
12:50 AM 64.4 °F 46.4 °F 52% 30.18 in - Variable 3.5 mph - N/A   Unknown
1:20 AM 62.6 °F 46.4 °F 55% 30.18 in - NNW 4.6 mph - N/A   Unknown
1:50 AM 60.8 °F 46.4 °F 59% 30.18 in - Variable 2.3 mph - N/A   Unknown
2:20 AM 59.0 °F 44.6 °F 59% 30.18 in - Variable 2.3 mph - N/A   Unknown
2:50 AM 60.8 °F 46.4 °F 59% 30.18 in - Variable 2.3 mph - N/A   Unknown
3:20 AM 59.0 °F 46.4 °F 63% 30.18 in - NNW 5.8 mph - N/A   Unknown
3:50 AM 60.8 °F 46.4 °F 59% 30.18 in - NNW 5.8 mph - N/A   Unknown
4:20 AM 59.0 °F 46.4 °F 63% 30.18 in - North 5.8 mph - N/A   Unknown
4:50 AM 59.0 °F 46.4 °F 63% 30.18 in - North 4.6 mph - N/A   Unknown
5:20 AM 57.2 °F 44.6 °F 63% 30.18 in - North 4.6 mph - N/A   Unknown
5:50 AM 59.0 °F 46.4 °F 63% 30.18 in - NNW 4.6 mph - N/A   Unknown
6:20 AM 57.2 °F 46.4 °F 67% 30.18 in - North 4.6 mph - N/A   Unknown
6:50 AM 57.2 °F 46.4 °F 67% 30.18 in - NNW 4.6 mph - N/A   Unknown
7:20 AM 57.2 °F 46.4 °F 67% 30.21 in - NW 4.6 mph - N/A   Unknown
7:50 AM 60.8 °F 46.4 °F 59% 30.21 in - Variable 2.3 mph - N/A   Unknown
8:20 AM 64.4 °F 48.2 °F 56% 30.21 in - Variable 2.3 mph - N/A   Unknown
8:50 AM 69.8 °F 48.2 °F 46% 30.21 in - Calm Calm - N/A   Unknown
9:20 AM 69.8 °F 48.2 °F 46% 30.21 in - Variable 2.3 mph - N/A   Unknown
9:50 AM 71.6 °F 48.2 °F 43% 30.21 in - Variable 3.5 mph - N/A   Unknown
10:20 AM 73.4 °F 48.2 °F 41% 30.21 in - ESE 4.6 mph - N/A   Unknown
10:50 AM 73.4 °F 48.2 °F 41% 30.21 in - SE 4.6 mph - N/A   Unknown
11:20 AM 75.2 °F 48.2 °F 38% 30.21 in - SSE 4.6 mph - N/A   Unknown
11:50 AM 77.0 °F 48.2 °F 36% 30.21 in - WNW 4.6 mph - N/A   Unknown
12:20 PM 77.0 °F 48.2 °F 36% 30.21 in - Variable 3.5 mph - N/A   Unknown
12:50 PM 78.8 °F 46.4 °F 32% 30.21 in - SE 5.8 mph - N/A   Unknown
1:20 PM 80.6 °F 46.4 °F 30% 30.21 in - SSE 5.8 mph - N/A   Unknown
1:50 PM 80.6 °F 46.4 °F 30% 30.21 in - South 6.9 mph - N/A   Unknown
2:20 PM 82.4 °F 48.2 °F 30% 30.18 in - SSE 5.8 mph - N/A   Unknown
2:50 PM 82.4 °F 46.4 °F 28% 30.18 in - SW 6.9 mph - N/A   Clear
3:50 PM 82.4 °F 44.6 °F 26% 30.15 in - SE 6.9 mph - N/A   Clear
4:50 PM 84.2 °F 46.4 °F 27% 30.15 in 6.2 mi SE 5.8 mph - N/A   Partly Cloudy
5:50 PM 84.2 °F 46.4 °F 27% 30.12 in 6.2 mi Variable 4.6 mph - N/A   Partly Cloudy
6:50 PM 82.4 °F 46.4 °F 28% 30.12 in 6.2 mi SSE 5.8 mph - N/A   Partly Cloudy
7:50 PM 77.0 °F 46.4 °F 34% 30.12 in 6.2 mi East 5.8 mph - N/A   Partly Cloudy
8:50 PM 71.6 °F 39.2 °F 31% 30.15 in 6.2 mi Calm Calm - N/A   Partly Cloudy
9:20 PM 69.8 °F 42.8 °F 38% 30.15 in - South 5.8 mph - N/A   Unknown
9:50 PM 68.0 °F 44.6 °F 43% 30.18 in - Variable 3.5 mph - N/A   Unknown
10:20 PM 68.0 °F 44.6 °F 43% 30.18 in - SE 4.6 mph - N/A   Unknown
10:50 PM 66.2 °F 44.6 °F 46% 30.18 in - Variable 1.2 mph - N/A   Unknown
11:20 PM 62.6 °F 46.4 °F 55% 30.18 in - Variable 1.2 mph - N/A   Unknown
11:50 PM 64.4 °F 46.4 °F 52% 30.18 in - Variable 2.3 mph - N/A   Unknown